Torna al catalogo

STARLINK-5869

AttivoComunicazioniVLEO
NORAD 57061·PAYLOAD·🇺🇸 United States

Lanciato Jun 22, 2023 da Vandenberg Space Force Base

Loading…

Prossimi Passaggi (prossime 24 ore)

TLE

AggiornatoSource: CelesTrak SupGP

Epoca: Sep 14, 2026, 15:02 UTC

1 57061C 23088P   26257.62687500  .00019726  00000+0  71435-3 0  2570
2 57061  42.9994 126.8943 0001390 246.3699 329.2793 15.27574083    11

Traccia STARLINK-5869 in tempo reale con AllMySat

Download on the App Store